Pagina principală
METAR-TAF:

METAR-TAF

Aeroporturi :

Omak Airport

Omak, Washington, Statele Unite ale Americii

Latitudine: 48-27-51N, longitudine: 119-31-05W, elevație: 397 m

Observații meteo curente

Raportul a fost făcut în urmă cu 55 de minute, la 20:53 UTC
Vânt 8 kt de la Sud/Sud-vest
Temperatură 31°C
Umiditate 21%
Presiune 1009 hPa
Vizibilitate: 16.1 km
Cer senin

METAR: KOMK 222053Z AUTO 21008KT 10SM CLR 31/06 A2980 RMK AO2 SLP085 T03110056 58015

Ora: 14:48 (21:48 UTC)


TAF: lipsă

Observații și prognoze meteo pentru peste 4.000 de aeroporturi (rapoarte METAR și TAF).

Stațiile disponibile sunt reprezentate pe hartă prin puncte galbene și roșii.

Țineți indicatorul mouse-ului pe punctul dorit pentru a vedea denumirea stației.

Apoi, faceți clic pentru a vedea observațiile și prognozele meteorologice.

Pentru a schimba harta: Pentru mărire, faceți clic pe butoanele verzi cu cruce neagră; pentru micșorare, pe butonul verde cu o liniuță; pentru hărți învecinate, pe săgețile verzi.


METAR-TAF: